JCSAT-3A                
1 29272U 06033A   19258.85537834 -.00000354  00000-0  00000-0 0  9995
2 29272   0.0188 226.4609 0002335 302.0303 261.9790  1.00272656 23002
SYRACUSE 3B             
1 29273U 06033B   19258.80118653 -.00000052  00000-0  00000+0 0  9999
2 29273   0.0154 170.0928 0004582 355.0713 112.5419  1.00271635 48016
ARIANE 5 DEB [SYLDA]    
1 29274U 06033C   19258.48743268  .00041710  00000-0  41496-2 0  9992
2 29274   5.8012 186.8291 6140491 355.9634   0.7253  3.86530747145096
ARIANE 5 R/B            
1 29275U 06033D   19258.53179745  .00001476  00000-0  62514-3 0  9992
2 29275   5.9736 188.9977 7111949 351.5316   0.9502  2.48683180114228